Time,TemperatureF,DewpointF,PressureIn,WindDirection,WindDirectionDegrees,WindSpeedMPH,WindSpeedGustMPH,Humidity,HourlyPrecipIn,Conditions,Clouds,dailyrainin,SoftwareType,DateUTC
2013-09-15 00:13:00,60.0,47.0,29.99,South,186,0.0,1.0,62,0.00,,,0.00,,2013-09-15 05:13:00,
2013-09-15 00:22:00,60.0,48.0,29.99,SE,142,0.0,3.0,64,0.00,,,0.00,,2013-09-15 05:22:00,
2013-09-15 00:42:00,59.0,47.0,29.99,SSE,155,0.0,1.0,65,0.00,,,0.00,,2013-09-15 05:42:00,
2013-09-15 00:52:00,59.0,47.0,29.99,SSE,155,0.0,0.0,65,0.00,,,0.00,,2013-09-15 05:52:00,
2013-09-15 01:12:00,59.0,47.0,29.98,SSE,158,0.0,1.0,65,0.00,,,0.00,,2013-09-15 06:12:00,
2013-09-15 01:21:00,59.0,47.0,29.98,SSE,158,0.0,1.0,64,0.00,,,0.00,,2013-09-15 06:21:00,
2013-09-15 01:52:00,59.0,47.0,29.98,South,175,0.0,0.0,65,0.00,,,0.00,,2013-09-15 06:52:00,
2013-09-15 02:11:00,59.0,48.0,29.99,South,175,0.0,0.0,66,0.00,,,0.00,,2013-09-15 07:11:00,
2013-09-15 02:22:00,58.0,47.0,29.99,South,175,0.0,1.0,68,0.00,,,0.00,,2013-09-15 07:22:00,
2013-09-15 02:52:00,58.0,49.0,29.98,SSE,148,0.0,2.0,71,0.00,,,0.00,,2013-09-15 07:52:00,
2013-09-15 03:11:00,57.0,48.0,29.99,SSE,148,0.0,0.0,71,0.00,,,0.00,,2013-09-15 08:11:00,
2013-09-15 03:22:00,57.0,48.0,29.99,SSE,148,0.0,0.0,72,0.00,,,0.00,,2013-09-15 08:22:00,
2013-09-15 03:52:00,57.0,48.0,30.00,SSE,148,0.0,0.0,73,0.00,,,0.00,,2013-09-15 08:52:00,
2013-09-15 04:12:00,57.0,48.0,30.00,SSE,148,0.0,0.0,73,0.00,,,0.00,,2013-09-15 09:12:00,
2013-09-15 04:22:00,57.0,49.0,30.00,SSE,148,0.0,0.0,74,0.00,,,0.00,,2013-09-15 09:22:00,
2013-09-15 04:43:00,57.0,50.0,30.00,SSE,148,0.0,1.0,77,0.00,,,0.00,,2013-09-15 09:43:00,
2013-09-15 04:53:00,57.0,51.0,30.01,SSE,148,0.0,0.0,80,0.00,,,0.00,,2013-09-15 09:53:00,
2013-09-15 05:13:00,56.0,51.0,30.01,SE,142,0.0,0.0,83,0.00,,,0.00,,2013-09-15 10:13:00,
2013-09-15 05:23:00,56.0,52.0,30.01,SE,142,0.0,0.0,85,0.01,,,0.01,,2013-09-15 10:23:00,
2013-09-15 05:43:00,55.0,52.0,30.02,SE,142,0.0,0.0,88,0.03,,,0.03,,2013-09-15 10:43:00,
2013-09-15 05:52:00,55.0,52.0,30.02,SE,142,0.0,0.0,89,0.04,,,0.04,,2013-09-15 10:52:00,
2013-09-15 06:12:00,55.0,52.0,30.02,SE,142,0.0,0.0,91,0.06,,,0.06,,2013-09-15 11:12:00,
2013-09-15 06:22:00,55.0,52.0,30.01,SE,142,0.0,0.0,91,0.07,,,0.08,,2013-09-15 11:22:00,
2013-09-15 06:42:00,54.0,52.0,30.01,SE,142,0.0,1.0,92,0.05,,,0.08,,2013-09-15 11:42:00,
2013-09-15 06:52:00,54.0,52.0,30.00,SSE,147,0.0,3.0,92,0.04,,,0.08,,2013-09-15 11:52:00,
2013-09-15 07:12:00,54.0,52.0,30.01,SSE,166,0.0,2.0,93,0.03,,,0.09,,2013-09-15 12:12:00,
2013-09-15 07:21:00,54.0,52.0,29.99,SSE,149,0.0,3.0,93,0.04,,,0.12,,2013-09-15 12:21:00,
2013-09-15 07:52:00,54.0,52.0,30.00,SSE,160,0.0,3.0,94,0.13,,,0.21,,2013-09-15 12:52:00,
2013-09-15 08:11:00,54.0,52.0,30.00,SE,144,1.0,3.0,94,0.13,,,0.22,,2013-09-15 13:11:00,
2013-09-15 08:21:00,54.0,53.0,30.00,South,186,0.0,3.0,95,0.12,,,0.24,,2013-09-15 13:21:00,
2013-09-15 08:52:00,54.0,53.0,29.98,SSW,205,0.0,3.0,95,0.03,,,0.24,,2013-09-15 13:52:00,
2013-09-15 09:12:00,53.0,52.0,29.98,South,182,0.0,5.0,95,0.07,,,0.29,,2013-09-15 14:12:00,
2013-09-15 09:22:00,53.0,52.0,29.97,SSE,157,1.0,6.0,95,0.10,,,0.34,,2013-09-15 14:22:00,
2013-09-15 14:22:00,56.0,55.0,29.98,South,171,0.0,0.0,97,0.14,,,0.79,,2013-09-15 19:22:00,
2013-09-15 14:52:00,56.0,55.0,29.98,South,171,0.0,0.0,97,0.03,,,0.80,,2013-09-15 19:52:00,
2013-09-15 15:11:00,57.0,56.0,29.99,South,171,0.0,0.0,97,0.01,,,0.80,,2013-09-15 20:11:00,
2013-09-15 15:22:00,57.0,56.0,29.99,South,171,0.0,0.0,97,0.01,,,0.80,,2013-09-15 20:22:00,
2013-09-15 15:42:00,57.0,56.0,30.00,South,171,0.0,0.0,98,0.01,,,0.81,,2013-09-15 20:42:00,
2013-09-15 15:53:00,58.0,57.0,30.00,South,171,0.0,0.0,97,0.01,,,0.81,,2013-09-15 20:53:00,
2013-09-15 16:11:00,58.0,57.0,30.01,South,171,0.0,0.0,97,0.01,,,0.81,,2013-09-15 21:11:00,
2013-09-15 16:21:00,58.0,57.0,30.01,South,171,0.0,0.0,97,0.02,,,0.82,,2013-09-15 21:21:00,
2013-09-15 16:44:00,57.0,56.0,30.01,South,170,0.0,0.0,97,0.01,,,0.82,,2013-09-15 21:44:00,
2013-09-15 16:54:00,57.0,56.0,30.01,South,170,0.0,0.0,97,0.01,,,0.82,,2013-09-15 21:54:00,
2013-09-15 17:14:00,58.0,57.0,30.02,SSE,165,0.0,0.0,97,0.01,,,0.82,,2013-09-15 22:14:00,
2013-09-15 17:23:00,58.0,57.0,30.02,NNE,28,0.0,3.0,97,0.00,,,0.82,,2013-09-15 22:23:00,
2013-09-15 17:53:00,57.0,56.0,30.03,NNE,28,0.0,1.0,97,0.00,,,0.82,,2013-09-15 22:53:00,
2013-09-15 18:12:00,57.0,56.0,30.04,NNE,28,1.0,3.0,97,0.00,,,0.82,,2013-09-15 23:12:00,
2013-09-15 18:22:00,57.0,56.0,30.04,NNE,28,1.0,3.0,97,0.00,,,0.82,,2013-09-15 23:22:00,
2013-09-15 18:52:00,58.0,57.0,30.06,NNE,28,0.0,0.0,97,0.00,,,0.82,,2013-09-15 23:52:00,
2013-09-15 19:11:00,58.0,57.0,30.06,NNE,28,0.0,0.0,97,0.00,,,0.82,,2013-09-16 00:11:00,
2013-09-15 19:22:00,58.0,57.0,30.07,NNE,28,0.0,3.0,97,0.00,,,0.82,,2013-09-16 00:22:00,
2013-09-15 19:42:00,58.0,57.0,30.08,NNE,28,0.0,3.0,97,0.00,,,0.82,,2013-09-16 00:42:00,
2013-09-15 19:52:00,58.0,57.0,30.09,NNE,28,0.0,1.0,97,0.00,,,0.82,,2013-09-16 00:52:00,
2013-09-15 20:12:00,57.0,56.0,30.10,NNE,28,0.0,3.0,96,0.00,,,0.82,,2013-09-16 01:12:00,
2013-09-15 20:21:00,57.0,56.0,30.10,NNE,28,0.0,1.0,96,0.00,,,0.82,,2013-09-16 01:21:00,
2013-09-15 20:42:00,57.0,56.0,30.11,NNE,28,0.0,1.0,96,0.00,,,0.82,,2013-09-16 01:42:00,
2013-09-15 20:52:00,57.0,56.0,30.11,NNE,28,0.0,1.0,96,0.00,,,0.82,,2013-09-16 01:52:00,
2013-09-15 21:12:00,56.0,55.0,30.12,NNE,28,0.0,2.0,95,0.00,,,0.82,,2013-09-16 02:12:00,
2013-09-15 21:22:00,56.0,55.0,30.13,NNE,28,0.0,2.0,95,0.00,,,0.82,,2013-09-16 02:22:00,
2013-09-15 21:42:00,55.0,54.0,30.13,NNE,28,0.0,0.0,95,0.00,,,0.82,,2013-09-16 02:42:00,
2013-09-15 21:52:00,55.0,54.0,30.13,NNE,28,0.0,1.0,95,0.00,,,0.82,,2013-09-16 02:52:00,
2013-09-15 22:11:00,54.0,53.0,30.14,NNE,28,0.0,3.0,96,0.00,,,0.82,,2013-09-16 03:11:00,
2013-09-15 22:22:00,54.0,53.0,30.14,NNE,28,0.0,1.0,96,0.00,,,0.82,,2013-09-16 03:22:00,
2013-09-15 22:54:00,54.0,53.0,30.16,NNE,28,0.0,1.0,96,0.00,,,0.82,,2013-09-16 03:54:00,
2013-09-15 23:13:00,54.0,53.0,30.16,NNE,28,0.0,2.0,96,0.00,,,0.82,,2013-09-16 04:13:00,
2013-09-15 23:24:00,54.0,53.0,30.16,NNE,28,0.0,2.0,97,0.00,,,0.82,,2013-09-16 04:24:00,
2013-09-15 23:54:00,54.0,53.0,30.17,NNE,28,1.0,3.0,97,0.00,,,0.82,,2013-09-16 04:54:00,